Weather History for Ponce, PR

Change the Weather History Date:

Wednesday, May 13, 2009

  Actual Average Record
Temperature  
Mean Temperature 78 °F -  
Max Temperature 86 °F 87 °F 91 °F (1997)
Min Temperature 71 °F 73 °F 71 °F (2000)
Cooling Degree Days 14    
Growing Degree Days 28 (Base 50)    
Moisture  
Dew Point 72 °F    
Average Humidity 89    
Maximum Humidity 100    
Minimum Humidity 62    
Precipitation  
Precipitation 0.00 in - - ()
Sea Level Pressure  
Sea Level Pressure 29.97 in    
Wind  
Wind Speed 5 mph (East)    
Max Wind Speed 12 mph    
Max Gust Speed -    
Visibility 9 miles    
Events Rain    
Averages and records for this station are not official NWS values.
T = Trace of Precipitation, MM = Missing Value Source: NWS Daily Summary

Daily Weather History Graph

Daily Weather History Graph

Search for Another Location

Airport:

Trip Planner

Search our weather history database for the weather conditions in past years. The results will help you decide how hot, cold, wet, or windy it might be!

Date:

Astronomy

May. 13, 2009 Rise Set
Actual Time 5:53 AM AST 6:51 PM AST
Civil Twilight 5:30 AM AST 7:14 PM AST
Nautical Twilight 5:03 AM AST 7:42 PM AST
Astronomical Twilight 4:35 AM AST 8:10 PM AST
Moon 10:52 PM AST (5/13) 9:18 AM AST (5/13)
Length of Visible Light 13h 43m
Length of Day
12h 57m
Waning Gibbous, 82% of the Moon is Illuminated
May 13
Waning Gibbous
May 17
Last Quarter
May 24
New
May 30
First Quarter
Jun 7
Full

Hourly Weather History & Observations

Time (AST) Temp. Heat Index Dew Point Humidity Pressure Visibility Wind Dir Wind Speed Gust Speed Precip Events Conditions
12:50 AM 75.2 °F - 71.6 °F 89% 29.97 in 8.0 mi Calm Calm - N/A   Mostly Cloudy
1:58 AM 73.4 °F - 73.4 °F 100% 29.95 in 8.0 mi NE 9.2 mph - N/A Rain Rain
2:58 AM 73.4 °F - 73.4 °F 100% 29.93 in 8.0 mi NE 5.8 mph - N/A Rain Light Rain
3:58 AM 73.4 °F - 73.4 °F 100% 29.92 in 8.0 mi Calm Calm - N/A   Overcast
4:50 AM 73.4 °F - 73.4 °F 100% 29.92 in 8.0 mi NE 5.8 mph - N/A   Overcast
5:50 AM 73.4 °F - 73.4 °F 100% 29.94 in 8.0 mi Calm Calm - N/A   Mostly Cloudy
6:50 AM 75.2 °F - 73.4 °F 94% 29.96 in 10.0 mi East 5.8 mph - N/A   Scattered Clouds
7:50 AM 75.2 °F - 73.4 °F 94% 29.96 in 10.0 mi ESE 9.2 mph - N/A   Mostly Cloudy
8:50 AM 78.8 °F - 73.4 °F 83% 29.99 in 10.0 mi ESE 9.2 mph - N/A   Mostly Cloudy
10:50 AM 80.6 °F 84.6 °F 71.6 °F 74% 30.00 in 10.0 mi SE 11.5 mph - N/A   Mostly Cloudy
1:50 PM 86.0 °F 91.8 °F 71.6 °F 62% 29.96 in 10.0 mi SE 11.5 mph - N/A   Mostly Cloudy
2:50 PM 86.0 °F 91.8 °F 71.6 °F 62% 29.96 in 10.0 mi ESE 11.5 mph - N/A   Mostly Cloudy
3:50 PM 82.4 °F 87.2 °F 71.6 °F 70% 29.94 in 10.0 mi SE 11.5 mph - N/A   Mostly Cloudy
4:50 PM 82.4 °F 87.2 °F 71.6 °F 70% 29.94 in 10.0 mi East 9.2 mph - N/A   Mostly Cloudy
5:50 PM 73.4 °F - 69.8 °F 88% 29.98 in 10.0 mi NE 9.2 mph - N/A Rain Rain
6:50 PM 73.4 °F - 69.8 °F 88% 29.97 in 10.0 mi ENE 11.5 mph - N/A Rain Light Rain
7:50 PM 71.6 °F - 71.6 °F 100% 30.00 in 10.0 mi SSE 11.5 mph - N/A   Overcast
8:50 PM 71.6 °F - 71.6 °F 100% 30.01 in 10.0 mi Calm Calm - N/A Rain Light Rain
9:50 PM 71.6 °F - 71.6 °F 100% 30.01 in 10.0 mi Calm Calm - N/A   Overcast
10:58 PM 73.4 °F - 71.6 °F 94% 30.03 in 8.0 mi Calm Calm - N/A   Overcast
11:50 PM 73.4 °F - 71.6 °F 94% 30.03 in 8.0 mi Calm Calm - N/A   Overcast